contact:dominique.lefevre@mio.osupytheas.fr, maurice.libes@osupytheas.fr, didier.mallarino@osupytheas.fr
Project:EMSO http://www.emso-fr.org/EMSO-France
Depth: 2436.0 m
Title:EMSO Ligure Ouest : Data MII capteur MICROCAT
DateTime_Computer,Latitude,Longitude,Temperature,Conductivity,Pressure,DateTime_Instrument
DateTime_Computer,Latitude,Longitude,degC,S m-1,dbar,DateTime_Instrument
2023-02-21T00:01:14Z,42.805,6.029,13.3073,4.60157,2470.366,2023-2-21T02:03:41Z
2023-02-21T00:04:17Z,42.805,6.029,13.3080,4.60207,2470.404,2023-2-21T02:06:45Z
2023-02-21T00:07:21Z,42.805,6.029,13.3091,4.60180,2470.39,2023-2-21T02:09:48Z
2023-02-21T00:10:24Z,42.805,6.029,13.3093,4.60136,2470.404,2023-2-21T02:12:51Z
2023-02-21T00:13:27Z,42.805,6.029,13.3090,4.60154,2470.39,2023-2-21T02:15:54Z
2023-02-21T00:16:30Z,42.805,6.029,13.3092,4.60172,2470.39,2023-2-21T02:18:57Z
2023-02-21T00:19:33Z,42.805,6.029,13.3080,4.60205,2470.38,2023-2-21T02:22:00Z
2023-02-21T00:22:36Z,42.805,6.029,13.3106,4.60170,2470.366,2023-2-21T02:25:03Z
2023-02-21T00:25:39Z,42.805,6.029,13.3070,4.60223,2470.404,2023-2-21T02:28:06Z
2023-02-21T00:28:42Z,42.805,6.029,13.3069,4.60199,2470.38,2023-2-21T02:31:09Z
2023-02-21T00:31:45Z,42.805,6.029,13.3082,4.60180,2470.38,2023-2-21T02:34:12Z
2023-02-21T00:34:48Z,42.805,6.029,13.3125,4.60165,2470.366,2023-2-21T02:37:15Z
2023-02-21T00:37:51Z,42.805,6.029,13.3054,4.60202,2470.38,2023-2-21T02:40:18Z
2023-02-21T00:40:54Z,42.805,6.029,13.3078,4.60156,2470.38,2023-2-21T02:43:21Z
2023-02-21T00:43:57Z,42.805,6.029,13.3069,4.60154,2470.343,2023-2-21T02:46:25Z
2023-02-21T00:47:01Z,42.805,6.029,13.3078,4.60158,2470.366,2023-2-21T02:49:28Z
2023-02-21T00:50:04Z,42.805,6.029,13.3084,4.60170,2470.366,2023-2-21T02:52:31Z
2023-02-21T00:53:07Z,42.805,6.029,13.3071,4.60160,2470.343,2023-2-21T02:55:34Z
2023-02-21T00:56:10Z,42.805,6.029,13.3079,4.60127,2470.366,2023-2-21T02:58:37Z
2023-02-21T00:59:13Z,42.805,6.029,13.3093,4.60119,2470.366,2023-2-21T03:01:40Z
2023-02-21T01:02:16Z,42.805,6.029,13.3081,4.60147,2470.357,2023-2-21T03:04:43Z
2023-02-21T01:05:19Z,42.805,6.029,13.3077,4.60161,2470.38,2023-2-21T03:07:46Z
2023-02-21T01:08:22Z,42.805,6.029,13.3062,4.60142,2470.38,2023-2-21T03:10:49Z
2023-02-21T01:11:25Z,42.805,6.029,13.3061,4.60174,2470.343,2023-2-21T03:13:52Z
2023-02-21T01:14:28Z,42.805,6.029,13.3065,4.60193,2470.343,2023-2-21T03:16:55Z
2023-02-21T01:17:31Z,42.805,6.029,13.3058,4.60150,2470.357,2023-2-21T03:19:58Z
2023-02-21T01:20:34Z,42.805,6.029,13.3054,4.60160,2470.334,2023-2-21T03:23:01Z
2023-02-21T01:23:37Z,42.805,6.029,13.3052,4.60155,2470.38,2023-2-21T03:26:05Z
2023-02-21T01:26:41Z,42.805,6.029,13.3056,4.60166,2470.343,2023-2-21T03:29:08Z
2023-02-21T01:29:44Z,42.805,6.029,13.3052,4.60174,2470.32,2023-2-21T03:32:11Z
2023-02-21T01:32:47Z,42.805,6.029,13.3065,4.60186,2470.343,2023-2-21T03:35:14Z
2023-02-21T01:35:50Z,42.805,6.029,13.3056,4.60155,2470.32,2023-2-21T03:38:17Z
2023-02-21T01:38:53Z,42.805,6.029,13.3076,4.60150,2470.334,2023-2-21T03:41:20Z
2023-02-21T01:41:56Z,42.805,6.029,13.3069,4.60157,2470.366,2023-2-21T03:44:23Z
2023-02-21T01:44:59Z,42.805,6.029,13.3058,4.60167,2470.33,2023-2-21T03:47:26Z
2023-02-21T01:48:02Z,42.805,6.029,13.3052,4.60141,2470.357,2023-2-21T03:50:29Z
2023-02-21T01:51:05Z,42.805,6.029,13.3041,4.60148,2470.343,2023-2-21T03:53:32Z
2023-02-21T01:54:08Z,42.805,6.029,13.3044,4.60148,2470.343,2023-2-21T03:56:35Z
2023-02-21T01:57:11Z,42.805,6.029,13.3044,4.60156,2470.357,2023-2-21T03:59:38Z
2023-02-21T02:00:14Z,42.805,6.029,13.3037,4.60138,2470.357,2023-2-21T04:02:42Z
2023-02-21T02:03:17Z,42.805,6.029,13.3041,4.60142,2470.343,2023-2-21T04:05:45Z
2023-02-21T02:06:21Z,42.805,6.029,13.3058,4.60161,2470.357,2023-2-21T04:08:48Z
2023-02-21T02:09:24Z,42.805,6.029,13.3058,4.60144,2470.31,2023-2-21T04:11:51Z
2023-02-21T02:12:27Z,42.805,6.029,13.3066,4.60129,2470.32,2023-2-21T04:14:54Z
2023-02-21T02:15:30Z,42.805,6.029,13.3078,4.60140,2470.32,2023-2-21T04:17:57Z
2023-02-21T02:18:33Z,42.805,6.029,13.3081,4.60167,2470.343,2023-2-21T04:21:00Z
2023-02-21T02:21:36Z,42.805,6.029,13.3091,4.60130,2470.343,2023-2-21T04:24:03Z
2023-02-21T02:24:39Z,42.805,6.029,13.3069,4.60137,2470.334,2023-2-21T04:27:06Z
2023-02-21T02:27:42Z,42.805,6.029,13.3052,4.60151,2470.343,2023-2-21T04:30:09Z
2023-02-21T02:30:45Z,42.805,6.029,13.3060,4.60151,2470.32,2023-2-21T04:33:12Z
2023-02-21T02:33:48Z,42.805,6.029,13.3061,4.60166,2470.32,2023-2-21T04:36:15Z
2023-02-21T02:36:51Z,42.805,6.029,13.3057,4.60169,2470.357,2023-2-21T04:39:18Z
2023-02-21T02:39:54Z,42.805,6.029,13.3058,4.60169,2470.357,2023-2-21T04:42:22Z
2023-02-21T02:42:58Z,42.805,6.029,13.3048,4.60165,2470.343,2023-2-21T04:45:25Z
2023-02-21T02:46:01Z,42.805,6.029,13.3059,4.60142,2470.38,2023-2-21T04:48:28Z
2023-02-21T02:49:04Z,42.805,6.029,13.3089,4.60152,2470.357,2023-2-21T04:51:31Z
2023-02-21T02:52:07Z,42.805,6.029,13.3083,4.60165,2470.38,2023-2-21T04:54:34Z
2023-02-21T02:55:10Z,42.805,6.029,13.3078,4.60141,2470.38,2023-2-21T04:57:37Z
2023-02-21T02:58:13Z,42.805,6.029,13.3062,4.60173,2470.343,2023-2-21T05:00:40Z
2023-02-21T03:01:16Z,42.805,6.029,13.3066,4.60148,2470.334,2023-2-21T05:03:43Z
2023-02-21T03:04:19Z,42.805,6.029,13.3072,4.60160,2470.343,2023-2-21T05:06:46Z
2023-02-21T03:07:22Z,42.805,6.029,13.3052,4.60144,2470.366,2023-2-21T05:09:49Z
2023-02-21T03:10:25Z,42.805,6.029,13.3073,4.60173,2470.38,2023-2-21T05:12:52Z
2023-02-21T03:13:28Z,42.805,6.029,13.3059,4.60158,2470.357,2023-2-21T05:15:55Z
2023-02-21T03:16:31Z,42.805,6.029,13.3063,4.60167,2470.38,2023-2-21T05:18:59Z
2023-02-21T03:19:34Z,42.805,6.029,13.3069,4.60157,2470.38,2023-2-21T05:22:02Z
2023-02-21T03:22:38Z,42.805,6.029,13.3068,4.60186,2470.366,2023-2-21T05:25:05Z
2023-02-21T03:25:41Z,42.805,6.029,13.3061,4.60155,2470.343,2023-2-21T05:28:08Z
2023-02-21T03:28:44Z,42.805,6.029,13.3043,4.60150,2470.343,2023-2-21T05:31:11Z
2023-02-21T03:31:47Z,42.805,6.029,13.3076,4.60173,2470.366,2023-2-21T05:34:14Z
2023-02-21T03:34:50Z,42.805,6.029,13.3063,4.60165,2470.366,2023-2-21T05:37:17Z
2023-02-21T03:37:53Z,42.805,6.029,13.3050,4.60185,2470.38,2023-2-21T05:40:20Z
2023-02-21T03:40:56Z,42.805,6.029,13.3061,4.60133,2470.404,2023-2-21T05:43:23Z
2023-02-21T03:43:59Z,42.805,6.029,13.3054,4.60139,2470.39,2023-2-21T05:46:26Z
2023-02-21T03:47:02Z,42.805,6.029,13.3052,4.60143,2470.39,2023-2-21T05:49:29Z
2023-02-21T03:50:05Z,42.805,6.029,13.3046,4.60127,2470.39,2023-2-21T05:52:32Z
2023-02-21T03:53:08Z,42.805,6.029,13.3046,4.60152,2470.427,2023-2-21T05:55:36Z
2023-02-21T03:56:11Z,42.805,6.029,13.3042,4.60173,2470.39,2023-2-21T05:58:39Z
2023-02-21T03:59:15Z,42.805,6.029,13.3045,4.60173,2470.413,2023-2-21T06:01:42Z
2023-02-21T04:02:18Z,42.805,6.029,13.3044,4.60166,2470.45,2023-2-21T06:04:45Z
2023-02-21T04:05:21Z,42.805,6.029,13.3051,4.60135,2470.413,2023-2-21T06:07:48Z
2023-02-21T04:08:24Z,42.805,6.029,13.3073,4.60153,2470.437,2023-2-21T06:10:51Z
2023-02-21T04:11:27Z,42.805,6.029,13.3050,4.60164,2470.437,2023-2-21T06:13:54Z
2023-02-21T04:14:30Z,42.805,6.029,13.3046,4.60149,2470.437,2023-2-21T06:16:57Z
2023-02-21T04:17:33Z,42.805,6.029,13.3047,4.60152,2470.437,2023-2-21T06:20:00Z
2023-02-21T04:20:36Z,42.805,6.029,13.3060,4.60158,2470.413,2023-2-21T06:23:03Z
2023-02-21T04:23:39Z,42.805,6.029,13.3049,4.60174,2470.437,2023-2-21T06:26:06Z
2023-02-21T04:26:42Z,42.805,6.029,13.3053,4.60156,2470.474,2023-2-21T06:29:09Z
2023-02-21T04:29:45Z,42.805,6.029,13.3058,4.60140,2470.45,2023-2-21T06:32:12Z
2023-02-21T04:32:48Z,42.805,6.029,13.3048,4.60128,2470.46,2023-2-21T06:35:16Z
2023-02-21T04:35:51Z,42.805,6.029,13.3045,4.60126,2470.497,2023-2-21T06:38:19Z
2023-02-21T04:38:55Z,42.805,6.029,13.3046,4.60152,2470.437,2023-2-21T06:41:22Z
2023-02-21T04:41:58Z,42.805,6.029,13.3042,4.60142,2470.45,2023-2-21T06:44:25Z
2023-02-21T04:45:01Z,42.805,6.029,13.3048,4.60134,2470.483,2023-2-21T06:47:28Z
2023-02-21T04:48:04Z,42.805,6.029,13.3041,4.60147,2470.483,2023-2-21T06:50:31Z
2023-02-21T04:51:07Z,42.805,6.029,13.3043,4.60137,2470.497,2023-2-21T06:53:34Z
2023-02-21T04:54:10Z,42.805,6.029,13.3043,4.60134,2470.497,2023-2-21T06:56:37Z
2023-02-21T04:57:13Z,42.805,6.029,13.3039,4.60129,2470.52,2023-2-21T06:59:40Z
2023-02-21T05:00:16Z,42.805,6.029,13.3041,4.60152,2470.497,2023-2-21T07:02:43Z
2023-02-21T05:03:19Z,42.805,6.029,13.3039,4.60135,2470.52,2023-2-21T07:05:46Z
2023-02-21T05:06:22Z,42.805,6.029,13.3043,4.60122,2470.53,2023-2-21T07:08:49Z
2023-02-21T05:09:25Z,42.805,6.029,13.3039,4.60133,2470.507,2023-2-21T07:11:53Z
2023-02-21T05:12:28Z,42.805,6.029,13.3047,4.60137,2470.483,2023-2-21T07:14:56Z
2023-02-21T05:15:32Z,42.805,6.029,13.3041,4.60116,2470.507,2023-2-21T07:17:59Z
2023-02-21T05:18:35Z,42.805,6.029,13.3040,4.60120,2470.53,2023-2-21T07:21:02Z
2023-02-21T05:21:38Z,42.805,6.029,13.3046,4.60132,2470.53,2023-2-21T07:24:05Z
2023-02-21T05:24:41Z,42.805,6.029,13.3041,4.60124,2470.544,2023-2-21T07:27:08Z
2023-02-21T05:27:44Z,42.805,6.029,13.3046,4.60130,2470.507,2023-2-21T07:30:11Z
2023-02-21T05:30:47Z,42.805,6.029,13.3041,4.60123,2470.53,2023-2-21T07:33:14Z
2023-02-21T05:33:50Z,42.805,6.029,13.3041,4.60133,2470.53,2023-2-21T07:36:17Z
2023-02-21T05:36:53Z,42.805,6.029,13.3037,4.60127,2470.53,2023-2-21T07:39:20Z
2023-02-21T05:39:56Z,42.805,6.029,13.3059,4.60169,2470.553,2023-2-21T07:42:23Z
2023-02-21T05:42:59Z,42.805,6.029,13.3063,4.60141,2470.591,2023-2-21T07:45:26Z
2023-02-21T05:46:02Z,42.805,6.029,13.3056,4.60127,2470.577,2023-2-21T07:48:29Z
2023-02-21T05:49:05Z,42.805,6.029,13.3056,4.60132,2470.553,2023-2-21T07:51:33Z
2023-02-21T05:52:08Z,42.805,6.029,13.3043,4.60129,2470.6,2023-2-21T07:54:36Z
2023-02-21T05:55:12Z,42.805,6.029,13.3048,4.60115,2470.577,2023-2-21T07:57:39Z
2023-02-21T05:58:15Z,42.805,6.029,13.3046,4.60116,2470.544,2023-2-21T08:00:42Z
2023-02-21T06:01:18Z,42.805,6.029,13.3043,4.60114,2470.591,2023-2-21T08:03:45Z
2023-02-21T06:04:21Z,42.805,6.029,13.3040,4.60110,2470.591,2023-2-21T08:06:48Z
2023-02-21T06:07:24Z,42.805,6.029,13.3041,4.60122,2470.6,2023-2-21T08:09:51Z
2023-02-21T06:10:27Z,42.805,6.029,13.3040,4.60122,2470.577,2023-2-21T08:12:54Z
2023-02-21T06:13:30Z,42.805,6.029,13.3037,4.60117,2470.577,2023-2-21T08:15:57Z
2023-02-21T06:16:33Z,42.805,6.029,13.3039,4.60119,2470.614,2023-2-21T08:19:00Z
2023-02-21T06:19:36Z,42.805,6.029,13.3039,4.60115,2470.637,2023-2-21T08:22:03Z
2023-02-21T06:22:39Z,42.805,6.029,13.3040,4.60117,2470.646,2023-2-21T08:25:06Z
2023-02-21T06:25:42Z,42.805,6.029,13.3036,4.60116,2470.614,2023-2-21T08:28:10Z
2023-02-21T06:28:45Z,42.805,6.029,13.3043,4.60130,2470.614,2023-2-21T08:31:13Z
2023-02-21T06:31:48Z,42.805,6.029,13.3039,4.60116,2470.624,2023-2-21T08:34:16Z
2023-02-21T06:34:52Z,42.805,6.029,13.3040,4.60104,2470.614,2023-2-21T08:37:19Z
2023-02-21T06:37:55Z,42.805,6.029,13.3039,4.60105,2470.637,2023-2-21T08:40:22Z
2023-02-21T06:40:58Z,42.805,6.029,13.3038,4.60104,2470.661,2023-2-21T08:43:25Z
2023-02-21T06:44:01Z,42.805,6.029,13.3036,4.60121,2470.646,2023-2-21T08:46:28Z
2023-02-21T06:47:04Z,42.805,6.029,13.3046,4.60122,2470.637,2023-2-21T08:49:31Z
2023-02-21T06:50:07Z,42.805,6.029,13.3051,4.60137,2470.67,2023-2-21T08:52:34Z
2023-02-21T06:53:10Z,42.805,6.029,13.3048,4.60143,2470.646,2023-2-21T08:55:37Z
2023-02-21T06:56:13Z,42.805,6.029,13.3043,4.60141,2470.624,2023-2-21T08:58:40Z
2023-02-21T06:59:16Z,42.805,6.029,13.3039,4.60106,2470.684,2023-2-21T09:01:43Z
2023-02-21T07:02:19Z,42.805,6.029,13.3041,4.60110,2470.661,2023-2-21T09:04:47Z
2023-02-21T07:05:22Z,42.805,6.029,13.3046,4.60121,2470.661,2023-2-21T09:07:50Z
2023-02-21T07:08:25Z,42.805,6.029,13.3047,4.60130,2470.646,2023-2-21T09:10:53Z
2023-02-21T07:11:29Z,42.805,6.029,13.3039,4.60116,2470.624,2023-2-21T09:13:56Z
2023-02-21T07:14:32Z,42.805,6.029,13.3036,4.60109,2470.661,2023-2-21T09:16:59Z
2023-02-21T07:17:35Z,42.805,6.029,13.3034,4.60113,2470.646,2023-2-21T09:20:02Z
2023-02-21T07:20:38Z,42.805,6.029,13.3038,4.60121,2470.693,2023-2-21T09:23:05Z
2023-02-21T07:23:41Z,42.805,6.029,13.3048,4.60117,2470.646,2023-2-21T09:26:08Z
2023-02-21T07:26:44Z,42.805,6.029,13.3036,4.60113,2470.684,2023-2-21T09:29:11Z
2023-02-21T07:29:47Z,42.805,6.029,13.3035,4.60121,2470.67,2023-2-21T09:32:14Z
2023-02-21T07:32:50Z,42.805,6.029,13.3034,4.60110,2470.684,2023-2-21T09:35:17Z
2023-02-21T07:35:53Z,42.805,6.029,13.3036,4.60106,2470.707,2023-2-21T09:38:20Z
2023-02-21T07:38:56Z,42.805,6.029,13.3038,4.60104,2470.67,2023-2-21T09:41:24Z
2023-02-21T07:41:59Z,42.805,6.029,13.3039,4.60116,2470.693,2023-2-21T09:44:27Z
2023-02-21T07:45:02Z,42.805,6.029,13.3036,4.60114,2470.707,2023-2-21T09:47:30Z
2023-02-21T07:48:06Z,42.805,6.029,13.3037,4.60111,2470.646,2023-2-21T09:50:33Z
2023-02-21T07:51:09Z,42.805,6.029,13.3038,4.60115,2470.684,2023-2-21T09:53:36Z
2023-02-21T07:54:12Z,42.805,6.029,13.3051,4.60125,2470.67,2023-2-21T09:56:39Z
2023-02-21T07:57:15Z,42.805,6.029,13.3039,4.60114,2470.67,2023-2-21T09:59:42Z
2023-02-21T08:00:18Z,42.805,6.029,13.3037,4.60108,2470.67,2023-2-21T10:02:45Z
2023-02-21T08:03:21Z,42.805,6.029,13.3046,4.60110,2470.67,2023-2-21T10:05:48Z
2023-02-21T08:06:24Z,42.805,6.029,13.3036,4.60105,2470.693,2023-2-21T10:08:51Z
2023-02-21T08:09:27Z,42.805,6.029,13.3039,4.60112,2470.661,2023-2-21T10:11:54Z
2023-02-21T08:12:30Z,42.805,6.029,13.3038,4.60116,2470.67,2023-2-21T10:14:57Z
2023-02-21T08:15:33Z,42.805,6.029,13.3040,4.60119,2470.67,2023-2-21T10:18:01Z
2023-02-21T08:18:36Z,42.805,6.029,13.3038,4.60139,2470.67,2023-2-21T10:21:04Z
2023-02-21T08:21:39Z,42.805,6.029,13.3036,4.60112,2470.707,2023-2-21T10:24:07Z
2023-02-21T08:24:43Z,42.805,6.029,13.3039,4.60135,2470.693,2023-2-21T10:27:10Z
2023-02-21T08:27:46Z,42.805,6.029,13.3034,4.60112,2470.67,2023-2-21T10:30:13Z
2023-02-21T08:30:49Z,42.805,6.029,13.3041,4.60120,2470.67,2023-2-21T10:33:16Z
2023-02-21T08:33:52Z,42.805,6.029,13.3034,4.60110,2470.707,2023-2-21T10:36:19Z
2023-02-21T08:36:55Z,42.805,6.029,13.3045,4.60115,2470.693,2023-2-21T10:39:22Z
2023-02-21T08:39:58Z,42.805,6.029,13.3043,4.60122,2470.73,2023-2-21T10:42:25Z
2023-02-21T08:43:01Z,42.805,6.029,13.3041,4.60110,2470.684,2023-2-21T10:45:28Z
2023-02-21T08:46:04Z,42.805,6.029,13.3036,4.60105,2470.707,2023-2-21T10:48:31Z
2023-02-21T08:49:07Z,42.805,6.029,13.3043,4.60118,2470.693,2023-2-21T10:51:34Z
2023-02-21T08:52:10Z,42.805,6.029,13.3041,4.60115,2470.684,2023-2-21T10:54:38Z
2023-02-21T08:55:13Z,42.805,6.029,13.3037,4.60105,2470.684,2023-2-21T10:57:41Z
2023-02-21T08:58:16Z,42.805,6.029,13.3050,4.60117,2470.693,2023-2-21T11:00:44Z
2023-02-21T09:01:20Z,42.805,6.029,13.3046,4.60137,2470.67,2023-2-21T11:03:47Z
2023-02-21T09:04:23Z,42.805,6.029,13.3046,4.60129,2470.67,2023-2-21T11:06:50Z
2023-02-21T09:07:26Z,42.805,6.029,13.3040,4.60129,2470.67,2023-2-21T11:09:53Z
2023-02-21T09:10:29Z,42.805,6.029,13.3037,4.60108,2470.67,2023-2-21T11:12:56Z
2023-02-21T09:13:32Z,42.805,6.029,13.3045,4.60120,2470.717,2023-2-21T11:15:59Z
2023-02-21T09:16:35Z,42.805,6.029,13.3037,4.60122,2470.684,2023-2-21T11:19:02Z
2023-02-21T09:19:38Z,42.805,6.029,13.3051,4.60133,2470.684,2023-2-21T11:22:05Z
2023-02-21T09:22:41Z,42.805,6.029,13.3052,4.60117,2470.693,2023-2-21T11:25:08Z
2023-02-21T09:25:44Z,42.805,6.029,13.3043,4.60117,2470.707,2023-2-21T11:28:11Z
2023-02-21T09:28:47Z,42.805,6.029,13.3040,4.60117,2470.67,2023-2-21T11:31:15Z
2023-02-21T09:31:50Z,42.805,6.029,13.3039,4.60132,2470.693,2023-2-21T11:34:18Z
2023-02-21T09:34:53Z,42.805,6.029,13.3051,4.60122,2470.693,2023-2-21T11:37:21Z
2023-02-21T09:37:57Z,42.805,6.029,13.3035,4.60123,2470.67,2023-2-21T11:40:24Z
2023-02-21T09:41:00Z,42.805,6.029,13.3043,4.60121,2470.67,2023-2-21T11:43:27Z
2023-02-21T09:44:03Z,42.805,6.029,13.3046,4.60119,2470.707,2023-2-21T11:46:30Z
2023-02-21T09:47:06Z,42.805,6.029,13.3041,4.60114,2470.684,2023-2-21T11:49:33Z
2023-02-21T09:50:09Z,42.805,6.029,13.3040,4.60124,2470.684,2023-2-21T11:52:36Z
2023-02-21T09:53:12Z,42.805,6.029,13.3041,4.60120,2470.646,2023-2-21T11:55:39Z
2023-02-21T09:56:15Z,42.805,6.029,13.3051,4.60126,2470.67,2023-2-21T11:58:42Z
2023-02-21T09:59:18Z,42.805,6.029,13.3046,4.60107,2470.67,2023-2-21T12:01:45Z
2023-02-21T10:02:21Z,42.805,6.029,13.3037,4.60119,2470.684,2023-2-21T12:04:48Z
2023-02-21T10:05:24Z,42.805,6.029,13.3034,4.60117,2470.646,2023-2-21T12:07:52Z
2023-02-21T10:08:27Z,42.805,6.029,13.3039,4.60107,2470.684,2023-2-21T12:10:55Z
2023-02-21T10:11:30Z,42.805,6.029,13.3037,4.60112,2470.661,2023-2-21T12:13:58Z
2023-02-21T10:14:33Z,42.805,6.029,13.3039,4.60120,2470.646,2023-2-21T12:17:01Z
2023-02-21T10:17:37Z,42.805,6.029,13.3040,4.60110,2470.661,2023-2-21T12:20:04Z
2023-02-21T10:20:40Z,42.805,6.029,13.3046,4.60139,2470.646,2023-2-21T12:23:07Z
2023-02-21T10:23:43Z,42.805,6.029,13.3046,4.60122,2470.661,2023-2-21T12:26:10Z
2023-02-21T10:26:46Z,42.805,6.029,13.3034,4.60114,2470.661,2023-2-21T12:29:13Z
2023-02-21T10:29:49Z,42.805,6.029,13.3038,4.60124,2470.661,2023-2-21T12:32:16Z
2023-02-21T10:32:52Z,42.805,6.029,13.3041,4.60148,2470.624,2023-2-21T12:35:19Z
2023-02-21T10:35:55Z,42.805,6.029,13.3040,4.60119,2470.637,2023-2-21T12:38:22Z
2023-02-21T10:38:58Z,42.805,6.029,13.3037,4.60127,2470.591,2023-2-21T12:41:25Z
2023-02-21T10:42:01Z,42.805,6.029,13.3036,4.60114,2470.6,2023-2-21T12:44:29Z
2023-02-21T10:45:04Z,42.805,6.029,13.3044,4.60131,2470.624,2023-2-21T12:47:32Z
2023-02-21T10:48:07Z,42.805,6.029,13.3049,4.60114,2470.6,2023-2-21T12:50:35Z
2023-02-21T10:51:11Z,42.805,6.029,13.3047,4.60119,2470.614,2023-2-21T12:53:38Z
2023-02-21T10:54:14Z,42.805,6.029,13.3043,4.60137,2470.624,2023-2-21T12:56:41Z
2023-02-21T10:57:17Z,42.805,6.029,13.3048,4.60142,2470.624,2023-2-21T12:59:44Z
2023-02-21T11:00:20Z,42.805,6.029,13.3037,4.60121,2470.614,2023-2-21T13:02:47Z
2023-02-21T11:03:23Z,42.805,6.029,13.3059,4.60134,2470.614,2023-2-21T13:05:50Z
2023-02-21T11:06:26Z,42.805,6.029,13.3039,4.60160,2470.6,2023-2-21T13:08:53Z
2023-02-21T11:09:29Z,42.805,6.029,13.3046,4.60122,2470.624,2023-2-21T13:11:56Z
2023-02-21T11:12:32Z,42.805,6.029,13.3052,4.60123,2470.553,2023-2-21T13:14:59Z
2023-02-21T11:15:35Z,42.805,6.029,13.3051,4.60165,2470.6,2023-2-21T13:18:03Z
2023-02-21T11:18:38Z,42.805,6.029,13.3062,4.60165,2470.577,2023-2-21T13:21:06Z
2023-02-21T11:21:41Z,42.805,6.029,13.3042,4.60130,2470.614,2023-2-21T13:24:09Z
2023-02-21T11:24:44Z,42.805,6.029,13.3045,4.60139,2470.577,2023-2-21T13:27:12Z
2023-02-21T11:27:48Z,42.805,6.029,13.3052,4.60146,2470.553,2023-2-21T13:30:15Z
2023-02-21T11:30:51Z,42.805,6.029,13.3046,4.60141,2470.577,2023-2-21T13:33:18Z
2023-02-21T11:33:54Z,42.805,6.029,13.3060,4.60152,2470.6,2023-2-21T13:36:21Z
2023-02-21T11:36:57Z,42.805,6.029,13.3045,4.60152,2470.577,2023-2-21T13:39:24Z
2023-02-21T11:40:00Z,42.805,6.029,13.3042,4.60124,2470.53,2023-2-21T13:42:27Z
2023-02-21T11:43:03Z,42.805,6.029,13.3054,4.60154,2470.53,2023-2-21T13:45:30Z
2023-02-21T11:46:06Z,42.805,6.029,13.3045,4.60157,2470.544,2023-2-21T13:48:33Z
2023-02-21T11:49:09Z,42.805,6.029,13.3043,4.60132,2470.553,2023-2-21T13:51:36Z
2023-02-21T11:52:12Z,42.805,6.029,13.3046,4.60119,2470.52,2023-2-21T13:54:40Z
2023-02-21T11:55:15Z,42.805,6.029,13.3043,4.60135,2470.553,2023-2-21T13:57:43Z
2023-02-21T11:58:18Z,42.805,6.029,13.3041,4.60120,2470.53,2023-2-21T14:00:46Z
2023-02-21T12:01:22Z,42.805,6.029,13.3046,4.60139,2470.539,2023-2-21T14:03:49Z
2023-02-21T12:04:25Z,42.805,6.029,13.3047,4.60127,2470.507,2023-2-21T14:06:52Z
2023-02-21T12:07:28Z,42.805,6.029,13.3038,4.60133,2470.507,2023-2-21T14:09:55Z
2023-02-21T12:10:31Z,42.805,6.029,13.3048,4.60127,2470.507,2023-2-21T14:12:58Z
2023-02-21T12:13:34Z,42.805,6.029,13.3043,4.60140,2470.507,2023-2-21T14:16:01Z
2023-02-21T12:16:37Z,42.805,6.029,13.3039,4.60125,2470.53,2023-2-21T14:19:04Z
2023-02-21T12:19:40Z,42.805,6.029,13.3046,4.60109,2470.497,2023-2-21T14:22:07Z
2023-02-21T12:22:43Z,42.805,6.029,13.3054,4.60146,2470.507,2023-2-21T14:25:10Z
2023-02-21T12:25:46Z,42.805,6.029,13.3041,4.60163,2470.52,2023-2-21T14:28:14Z
2023-02-21T12:28:49Z,42.805,6.029,13.3042,4.60137,2470.507,2023-2-21T14:31:17Z
2023-02-21T12:31:52Z,42.805,6.029,13.3050,4.60146,2470.507,2023-2-21T14:34:20Z
2023-02-21T12:34:55Z,42.805,6.029,13.3054,4.60152,2470.483,2023-2-21T14:37:23Z
2023-02-21T12:37:59Z,42.805,6.029,13.3043,4.60151,2470.474,2023-2-21T14:40:26Z
2023-02-21T12:41:02Z,42.805,6.029,13.3049,4.60160,2470.483,2023-2-21T14:43:29Z
2023-02-21T12:44:05Z,42.805,6.029,13.3046,4.60154,2470.497,2023-2-21T14:46:32Z
2023-02-21T12:47:08Z,42.805,6.029,13.3048,4.60170,2470.497,2023-2-21T14:49:35Z
2023-02-21T12:50:11Z,42.805,6.029,13.3050,4.60144,2470.483,2023-2-21T14:52:38Z
2023-02-21T12:53:14Z,42.805,6.029,13.3045,4.60135,2470.497,2023-2-21T14:55:41Z
2023-02-21T12:56:17Z,42.805,6.029,13.3046,4.60151,2470.497,2023-2-21T14:58:44Z
2023-02-21T12:59:20Z,42.805,6.029,13.3043,4.60140,2470.474,2023-2-21T15:01:47Z
2023-02-21T13:02:23Z,42.805,6.029,13.3059,4.60144,2470.46,2023-2-21T15:04:51Z
2023-02-21T13:05:26Z,42.805,6.029,13.3044,4.60151,2470.483,2023-2-21T15:07:54Z
2023-02-21T13:08:29Z,42.805,6.029,13.3049,4.60142,2470.437,2023-2-21T15:10:57Z
2023-02-21T13:11:32Z,42.805,6.029,13.3056,4.60159,2470.474,2023-2-21T15:14:00Z
2023-02-21T13:14:36Z,42.805,6.029,13.3041,4.60165,2470.483,2023-2-21T15:17:03Z
2023-02-21T13:17:39Z,42.805,6.029,13.3051,4.60146,2470.497,2023-2-21T15:20:06Z
2023-02-21T13:20:42Z,42.805,6.029,13.3049,4.60146,2470.46,2023-2-21T15:23:09Z
2023-02-21T13:23:45Z,42.805,6.029,13.3043,4.60135,2470.45,2023-2-21T15:26:12Z
2023-02-21T13:26:48Z,42.805,6.029,13.3055,4.60142,2470.474,2023-2-21T15:29:15Z
2023-02-21T13:29:51Z,42.805,6.029,13.3046,4.60159,2470.437,2023-2-21T15:32:18Z
2023-02-21T13:32:54Z,42.805,6.029,13.3053,4.60147,2470.474,2023-2-21T15:35:21Z
2023-02-21T13:35:57Z,42.805,6.029,13.3045,4.60169,2470.46,2023-2-21T15:38:25Z
2023-02-21T13:39:00Z,42.805,6.029,13.3050,4.60140,2470.46,2023-2-21T15:41:28Z
2023-02-21T13:42:03Z,42.805,6.029,13.3044,4.60161,2470.437,2023-2-21T15:44:31Z
2023-02-21T13:45:06Z,42.805,6.029,13.3053,4.60173,2470.437,2023-2-21T15:47:34Z
2023-02-21T13:48:09Z,42.805,6.029,13.3055,4.60156,2470.413,2023-2-21T15:50:37Z
2023-02-21T13:51:13Z,42.805,6.029,13.3038,4.60148,2470.413,2023-2-21T15:53:40Z
2023-02-21T13:54:16Z,42.805,6.029,13.3059,4.60132,2470.45,2023-2-21T15:56:43Z
2023-02-21T13:57:19Z,42.805,6.029,13.3048,4.60138,2470.413,2023-2-21T15:59:46Z
2023-02-21T14:00:22Z,42.805,6.029,13.3046,4.60168,2470.413,2023-2-21T16:02:49Z
2023-02-21T14:03:25Z,42.805,6.029,13.3052,4.60158,2470.413,2023-2-21T16:05:52Z
2023-02-21T14:06:28Z,42.805,6.029,13.3054,4.60147,2470.437,2023-2-21T16:08:55Z
2023-02-21T14:09:31Z,42.805,6.029,13.3045,4.60133,2470.38,2023-2-21T16:11:58Z
2023-02-21T14:12:34Z,42.805,6.029,13.3053,4.60155,2470.404,2023-2-21T16:15:02Z
2023-02-21T14:15:37Z,42.805,6.029,13.3051,4.60157,2470.437,2023-2-21T16:18:05Z
2023-02-21T14:18:40Z,42.805,6.029,13.3056,4.60152,2470.39,2023-2-21T16:21:08Z
2023-02-21T14:21:43Z,42.805,6.029,13.3046,4.60142,2470.39,2023-2-21T16:24:11Z
2023-02-21T14:24:46Z,42.805,6.029,13.3041,4.60150,2470.427,2023-2-21T16:27:14Z
2023-02-21T14:27:50Z,42.805,6.029,13.3058,4.60157,2470.413,2023-2-21T16:30:17Z
2023-02-21T14:30:53Z,42.805,6.029,13.3046,4.60151,2470.38,2023-2-21T16:33:20Z
2023-02-21T14:33:56Z,42.805,6.029,13.3050,4.60146,2470.427,2023-2-21T16:36:23Z
2023-02-21T14:36:59Z,42.805,6.029,13.3043,4.60132,2470.427,2023-2-21T16:39:26Z
2023-02-21T14:40:02Z,42.805,6.029,13.3043,4.60155,2470.413,2023-2-21T16:42:29Z
2023-02-21T14:43:05Z,42.805,6.029,13.3046,4.60140,2470.404,2023-2-21T16:45:32Z
2023-02-21T14:46:08Z,42.805,6.029,13.3046,4.60150,2470.413,2023-2-21T16:48:35Z
2023-02-21T14:49:11Z,42.805,6.029,13.3050,4.60137,2470.427,2023-2-21T16:51:39Z
2023-02-21T14:52:14Z,42.805,6.029,13.3042,4.60137,2470.413,2023-2-21T16:54:42Z
2023-02-21T14:55:17Z,42.805,6.029,13.3061,4.60149,2470.413,2023-2-21T16:57:45Z
2023-02-21T14:58:20Z,42.805,6.029,13.3047,4.60135,2470.404,2023-2-21T17:00:48Z
2023-02-21T15:01:23Z,42.805,6.029,13.3051,4.60142,2470.39,2023-2-21T17:03:51Z
2023-02-21T15:04:27Z,42.805,6.029,13.3041,4.60134,2470.38,2023-2-21T17:06:54Z
2023-02-21T15:07:30Z,42.805,6.029,13.3040,4.60137,2470.404,2023-2-21T17:09:57Z
2023-02-21T15:10:33Z,42.805,6.029,13.3052,4.60156,2470.427,2023-2-21T17:13:00Z
2023-02-21T15:13:36Z,42.805,6.029,13.3043,4.60135,2470.357,2023-2-21T17:16:03Z